Location: Stony Creek
(40.9500°S, 175.8500°E)
Time: 10:11:59
(UTC+00:00)

IGS 5A - Pass Details

Date: 15 May 2026
Orbit: 551 x 554 km, 97.4° (Epoch: 8 January)

Event Time Altitude Azimuth Distance (km) Brightness Sun altitude
Rises 17:28:21 0° 357° (N) 2,714 6.9 -20.6°
Reaches altitude 10° 17:30:33 10° 350° (N) 1,829 5.9 -20.2°
Enters shadow 17:33:09 33° 320° (NW) 954 4.2 -19.7°
